Time,TemperatureF,DewpointF,PressureIn,WindDirection,WindDirectionDegrees,WindSpeedMPH,WindSpeedGustMPH,Humidity,HourlyPrecipIn,Conditions,Clouds,dailyrainin,SoftwareType,DateUTC
2013-03-19 00:21:00,44.0,29.0,29.98,North,0,0.0,-999.0,55,0.00,,,-99.99,,2013-03-19 07:21:00,
2013-03-19 00:32:00,44.0,29.0,29.98,North,0,0.0,-999.0,55,0.00,,,-99.99,,2013-03-19 07:32:00,
2013-03-19 00:42:00,44.0,29.0,29.98,North,0,0.0,-999.0,55,0.00,,,-99.99,,2013-03-19 07:42:00,
2013-03-19 00:52:00,44.0,29.0,29.98,North,0,0.0,-999.0,55,0.00,,,-99.99,,2013-03-19 07:52:00,
2013-03-19 01:22:00,46.0,26.0,29.98,North,0,0.0,-999.0,45,0.00,,,-99.99,,2013-03-19 08:22:00,
2013-03-19 01:32:00,46.0,26.0,29.98,North,0,0.0,-999.0,45,0.00,,,-99.99,,2013-03-19 08:32:00,
2013-03-19 01:42:00,46.0,26.0,29.98,North,0,0.0,-999.0,45,0.00,,,-99.99,,2013-03-19 08:42:00,
2013-03-19 01:52:00,46.0,26.0,29.98,North,0,0.0,-999.0,45,0.00,,,-99.99,,2013-03-19 08:52:00,
2013-03-19 02:22:00,49.0,23.0,29.97,North,0,0.0,-999.0,36,0.00,,,-99.99,,2013-03-19 09:22:00,
2013-03-19 02:32:00,49.0,23.0,29.97,North,0,0.0,-999.0,36,0.00,,,-99.99,,2013-03-19 09:32:00,
2013-03-19 02:42:00,49.0,23.0,29.97,North,0,0.0,-999.0,36,0.00,,,-99.99,,2013-03-19 09:42:00,
2013-03-19 02:52:00,49.0,23.0,29.97,North,0,0.0,-999.0,36,0.00,,,-99.99,,2013-03-19 09:52:00,
2013-03-19 03:23:00,49.0,25.0,29.96,West,280,2.0,-999.0,38,0.00,,,-99.99,,2013-03-19 10:23:00,
2013-03-19 03:32:00,49.0,25.0,29.96,West,280,2.0,-999.0,38,0.00,,,-99.99,,2013-03-19 10:32:00,
2013-03-19 03:42:00,49.0,25.0,29.96,West,280,2.0,-999.0,38,0.00,,,-99.99,,2013-03-19 10:42:00,
2013-03-19 03:52:00,49.0,25.0,29.96,West,280,2.0,-999.0,38,0.00,,,-99.99,,2013-03-19 10:52:00,
2013-03-19 04:22:00,49.0,26.0,29.96,North,0,0.0,-999.0,41,0.00,,,-99.99,,2013-03-19 11:22:00,
2013-03-19 04:32:00,49.0,26.0,29.96,North,0,0.0,-999.0,41,0.00,,,-99.99,,2013-03-19 11:32:00,
2013-03-19 04:42:00,49.0,26.0,29.96,North,0,0.0,-999.0,41,0.00,,,-99.99,,2013-03-19 11:42:00,
2013-03-19 04:52:00,49.0,26.0,29.96,North,0,0.0,-999.0,41,0.00,,,-99.99,,2013-03-19 11:52:00,
2013-03-19 05:22:00,48.0,25.0,29.96,North,0,0.0,-999.0,40,0.00,,,-99.99,,2013-03-19 12:22:00,
2013-03-19 05:32:00,48.0,25.0,29.96,North,0,0.0,-999.0,40,0.00,,,-99.99,,2013-03-19 12:32:00,
2013-03-19 05:42:00,48.0,25.0,29.96,North,0,0.0,-999.0,40,0.00,,,-99.99,,2013-03-19 12:42:00,
2013-03-19 05:51:00,48.0,25.0,29.96,North,0,0.0,-999.0,40,0.00,,,-99.99,,2013-03-19 12:51:00,
2013-03-19 06:22:00,47.0,26.0,29.96,North,0,0.0,-999.0,44,0.00,,,-99.99,,2013-03-19 13:22:00,
2013-03-19 06:32:00,47.0,26.0,29.96,North,0,0.0,-999.0,44,0.00,,,-99.99,,2013-03-19 13:32:00,
2013-03-19 06:42:00,47.0,26.0,29.96,North,0,0.0,-999.0,44,0.00,,,-99.99,,2013-03-19 13:42:00,
2013-03-19 06:52:00,47.0,26.0,29.96,North,0,0.0,-999.0,44,0.00,,,-99.99,,2013-03-19 13:52:00,
2013-03-19 07:22:00,48.0,27.0,29.98,North,0,0.0,-999.0,43,0.00,,,-99.99,,2013-03-19 14:22:00,
2013-03-19 07:32:00,48.0,27.0,29.98,North,0,0.0,-999.0,43,0.00,,,-99.99,,2013-03-19 14:32:00,
2013-03-19 07:42:00,48.0,27.0,29.98,North,0,0.0,-999.0,43,0.00,,,-99.99,,2013-03-19 14:42:00,
2013-03-19 07:52:00,48.0,27.0,29.98,North,0,0.0,-999.0,43,0.00,,,-99.99,,2013-03-19 14:52:00,
2013-03-19 08:22:00,49.0,28.0,29.99,North,0,0.0,-999.0,44,0.00,,,-99.99,,2013-03-19 15:22:00,
2013-03-19 08:33:00,49.0,28.0,29.99,North,0,0.0,-999.0,44,0.00,,,-99.99,,2013-03-19 15:33:00,
2013-03-19 08:43:00,49.0,28.0,29.99,North,0,0.0,-999.0,44,0.00,,,-99.99,,2013-03-19 15:43:00,
2013-03-19 08:53:00,49.0,28.0,29.99,North,0,0.0,-999.0,44,0.00,,,-99.99,,2013-03-19 15:53:00,
2013-03-19 09:23:00,55.0,30.0,30.00,North,0,0.0,-999.0,38,0.00,,,-99.99,,2013-03-19 16:23:00,
2013-03-19 09:34:00,55.0,30.0,30.00,North,0,0.0,-999.0,38,0.00,,,-99.99,,2013-03-19 16:34:00,
2013-03-19 09:43:00,55.0,30.0,30.00,North,0,0.0,-999.0,38,0.00,,,-99.99,,2013-03-19 16:43:00,
2013-03-19 09:53:00,55.0,30.0,30.00,North,0,0.0,-999.0,38,0.00,,,-99.99,,2013-03-19 16:53:00,
2013-03-19 10:23:00,58.0,29.0,30.00,North,0,0.0,-999.0,33,0.00,,,-99.99,,2013-03-19 17:23:00,
2013-03-19 10:34:00,58.0,29.0,30.00,North,0,0.0,-999.0,33,0.00,,,-99.99,,2013-03-19 17:34:00,
2013-03-19 10:43:00,58.0,29.0,30.00,North,0,0.0,-999.0,33,0.00,,,-99.99,,2013-03-19 17:43:00,
2013-03-19 10:52:00,58.0,29.0,30.00,North,0,0.0,-999.0,33,0.00,,,-99.99,,2013-03-19 17:52:00,
2013-03-19 11:23:00,61.0,30.0,30.00,SE,130,3.0,-999.0,31,0.00,,,-99.99,,2013-03-19 18:23:00,
2013-03-19 11:33:00,61.0,30.0,30.00,SE,130,3.0,-999.0,31,0.00,,,-99.99,,2013-03-19 18:33:00,
2013-03-19 11:42:00,61.0,30.0,30.00,SE,130,3.0,-999.0,31,0.00,,,-99.99,,2013-03-19 18:42:00,
2013-03-19 11:52:00,61.0,30.0,30.00,SE,130,3.0,-999.0,31,0.00,,,-99.99,,2013-03-19 18:52:00,
2013-03-19 12:22:00,62.0,30.0,30.00,ESE,110,1.0,-999.0,30,0.00,,,-99.99,,2013-03-19 19:22:00,
2013-03-19 12:32:00,62.0,30.0,30.00,ESE,110,1.0,-999.0,30,0.00,,,-99.99,,2013-03-19 19:32:00,
2013-03-19 12:42:00,62.0,30.0,30.00,ESE,110,1.0,-999.0,30,0.00,,,-99.99,,2013-03-19 19:42:00,
2013-03-19 12:52:00,62.0,30.0,30.00,ESE,110,1.0,-999.0,30,0.00,,,-99.99,,2013-03-19 19:52:00,
2013-03-19 13:22:00,65.0,29.0,29.99,North,0,0.0,-999.0,26,0.00,,,-99.99,,2013-03-19 20:22:00,
2013-03-19 13:32:00,65.0,29.0,29.99,North,0,0.0,-999.0,26,0.00,,,-99.99,,2013-03-19 20:32:00,
2013-03-19 13:42:00,65.0,29.0,29.99,North,0,0.0,-999.0,26,0.00,,,-99.99,,2013-03-19 20:42:00,
2013-03-19 13:52:00,65.0,29.0,29.99,North,0,0.0,-999.0,26,0.00,,,-99.99,,2013-03-19 20:52:00,
2013-03-19 14:22:00,65.0,28.0,29.98,WNW,300,3.0,-999.0,25,0.00,,,-99.99,,2013-03-19 21:22:00,
2013-03-19 14:33:00,65.0,28.0,29.98,WNW,300,3.0,-999.0,25,0.00,,,-99.99,,2013-03-19 21:33:00,
2013-03-19 14:42:00,65.0,28.0,29.98,WNW,300,3.0,-999.0,25,0.00,,,-99.99,,2013-03-19 21:42:00,
2013-03-19 14:52:00,65.0,28.0,29.98,WNW,300,3.0,-999.0,25,0.00,,,-99.99,,2013-03-19 21:52:00,
2013-03-19 15:23:00,67.0,28.0,29.97,ENE,70,1.0,-999.0,23,0.00,,,-99.99,,2013-03-19 22:23:00,
2013-03-19 15:33:00,67.0,28.0,29.97,ENE,70,1.0,-999.0,23,0.00,,,-99.99,,2013-03-19 22:33:00,
2013-03-19 15:43:00,67.0,28.0,29.97,ENE,70,1.0,-999.0,23,0.00,,,-99.99,,2013-03-19 22:43:00,
2013-03-19 15:52:00,67.0,28.0,29.97,ENE,70,1.0,-999.0,23,0.00,,,-99.99,,2013-03-19 22:52:00,
2013-03-19 16:22:00,63.0,38.0,29.96,North,0,0.0,-999.0,40,0.00,,,-99.99,,2013-03-19 23:22:00,
2013-03-19 16:32:00,63.0,38.0,29.96,North,0,0.0,-999.0,40,0.00,,,-99.99,,2013-03-19 23:32:00,
2013-03-19 16:42:00,63.0,38.0,29.96,North,0,0.0,-999.0,40,0.00,,,-99.99,,2013-03-19 23:42:00,
2013-03-19 16:52:00,63.0,38.0,29.96,North,0,0.0,-999.0,40,0.00,,,-99.99,,2013-03-19 23:52:00,
2013-03-19 17:22:00,61.0,35.0,29.96,North,0,0.0,-999.0,38,0.00,,,-99.99,,2013-03-20 00:22:00,
2013-03-19 17:32:00,61.0,35.0,29.96,North,0,0.0,-999.0,38,0.00,,,-99.99,,2013-03-20 00:32:00,
2013-03-19 17:42:00,61.0,35.0,29.96,North,0,0.0,-999.0,38,0.00,,,-99.99,,2013-03-20 00:42:00,
2013-03-19 17:52:00,61.0,35.0,29.96,North,0,0.0,-999.0,38,0.00,,,-99.99,,2013-03-20 00:52:00,
2013-03-19 18:22:00,58.0,33.0,29.97,SW,220,3.0,-999.0,39,0.00,,,-99.99,,2013-03-20 01:22:00,
2013-03-19 18:32:00,58.0,33.0,29.97,SW,220,3.0,-999.0,39,0.00,,,-99.99,,2013-03-20 01:32:00,
2013-03-19 18:42:00,58.0,33.0,29.97,SW,220,3.0,-999.0,39,0.00,,,-99.99,,2013-03-20 01:42:00,
2013-03-19 18:52:00,58.0,33.0,29.97,SW,220,3.0,-999.0,39,0.00,,,-99.99,,2013-03-20 01:52:00,
2013-03-19 19:22:00,55.0,32.0,29.99,North,0,0.0,-999.0,41,0.00,,,-99.99,,2013-03-20 02:22:00,
2013-03-19 19:32:00,55.0,32.0,29.99,North,0,0.0,-999.0,41,0.00,,,-99.99,,2013-03-20 02:32:00,
2013-03-19 19:42:00,55.0,32.0,29.99,North,0,0.0,-999.0,41,0.00,,,-99.99,,2013-03-20 02:42:00,
2013-03-19 19:52:00,55.0,32.0,29.99,North,0,0.0,-999.0,41,0.00,,,-99.99,,2013-03-20 02:52:00,
2013-03-19 20:22:00,53.0,33.0,30.00,North,0,0.0,-999.0,46,0.00,,,-99.99,,2013-03-20 03:22:00,
2013-03-19 20:33:00,53.0,33.0,30.00,North,0,0.0,-999.0,46,0.00,,,-99.99,,2013-03-20 03:33:00,
2013-03-19 20:42:00,53.0,33.0,30.00,North,0,0.0,-999.0,46,0.00,,,-99.99,,2013-03-20 03:42:00,
2013-03-19 20:52:00,53.0,33.0,30.00,North,0,0.0,-999.0,46,0.00,,,-99.99,,2013-03-20 03:52:00,
2013-03-19 21:22:00,51.0,33.0,30.02,North,0,0.0,-999.0,49,0.00,,,-99.99,,2013-03-20 04:22:00,
2013-03-19 21:32:00,51.0,33.0,30.02,North,0,0.0,-999.0,49,0.00,,,-99.99,,2013-03-20 04:32:00,
2013-03-19 21:43:00,51.0,33.0,30.02,North,0,0.0,-999.0,49,0.00,,,-99.99,,2013-03-20 04:43:00,
2013-03-19 21:52:00,51.0,33.0,30.02,North,0,0.0,-999.0,49,0.00,,,-99.99,,2013-03-20 04:52:00,
2013-03-19 22:22:00,49.0,33.0,30.02,North,0,0.0,-999.0,53,0.00,,,-99.99,,2013-03-20 05:22:00,
2013-03-19 22:32:00,49.0,33.0,30.02,North,0,0.0,-999.0,53,0.00,,,-99.99,,2013-03-20 05:32:00,
2013-03-19 22:42:00,49.0,33.0,30.02,North,0,0.0,-999.0,53,0.00,,,-99.99,,2013-03-20 05:42:00,
2013-03-19 22:52:00,49.0,33.0,30.02,North,0,0.0,-999.0,53,0.00,,,-99.99,,2013-03-20 05:52:00,
2013-03-19 23:22:00,49.0,32.0,30.03,North,0,0.0,-999.0,52,0.00,,,-99.99,,2013-03-20 06:22:00,
2013-03-19 23:32:00,49.0,32.0,30.03,North,0,0.0,-999.0,52,0.00,,,-99.99,,2013-03-20 06:32:00,
2013-03-19 23:42:00,49.0,32.0,30.03,North,0,0.0,-999.0,52,0.00,,,-99.99,,2013-03-20 06:42:00,
2013-03-19 23:52:00,49.0,32.0,30.03,North,0,0.0,-999.0,52,0.00,,,-99.99,,2013-03-20 06:52:00,